Showing default

BUZZZER-1, 62609

Orbit data source: Space-Track

BUZZZER-1, 62609 is a payload satellite owned by Unseen Labs (FR) in SSO that was launched on Tue, 14 Jan 2025 UTC via an FALCON 9 launch vehicle from the Air Force Western Test Range (AFWTR). Payload-class satellites include a variety of spacecraft equipped with specific instruments for various scientific and technological missions. These include communications satellites like Starlink; space stations such as the ISS; scientific satellites like the Hubble; Earth observation satellites from companies like Planet Labs, Umbra, and HawkEye 360; GPS; miniature CubeSats for education and research; and military/defense satellites.

Loading next visibility...
Identifier
62609, 2025-009A
Orbit
SSO
Last TLE update
12 hours ago
Origin
Manufacturer
Unseen Labs
Mission
Operational Commercial Sigint
Bus & Motor
CUBESAT 6U, Unknown motor
Mass
~10 kg wet, ~10 kg dry
Launch date (UTC)
2025-01-14 (6 months ago)
Launch vehicle
FALCON 9
Launch site
Air Force Western Test Range (AFWTR)
Object type
Payload
Rocket body
Debris
Shape & HBR
Box + 2 Pan, 0.3 m
Radar Cross Section
0.080 m², Medium (>0.1 m² and < 1m²)

Expand to show TLE details & history

TLE from 12 hours ago
0 BUZZZER-1
1 62609U 25009A   25183.75878061  .00002499  00000-0  12427-3 0  9993
2 62609  97.4241 263.2901 0009629 114.3490 245.8750 15.18509500 25612
Epoch: 2025-07-02T18:12Z
TLE epoch observation values (Epoch: 2025-07-02T18:12:38.644Z)
Latitude
-0.00009°
Longitude
69.09382°
Altitude
516.149 km
Speed
7.604 km/s
True Right ascension
17h 33m 09s
True Declination
0° 00' 00"
Sunlit
Object was in full shadow at epoch
Visualization orbit readout
Latitude
72.63593°
Longitude
-85.95114°
Altitude
516.263 km
Speed
7.616 km/s
Apparent Right ascension
06h 00m 25s
Apparent Declination
20° 02' 37"
Sunlit
Object is in daylight
Visualization observer readout
Local Sidereal Time
17:30:16
Azimuth
351.852° N
Elevation
-29.629°
Doppler factor
1
Orbital elements
Apogee altitude
513.943 km
Perigee altitude
500.683 km
Semi-major axis
6,885.45 km
Eccentricity
0.00096
Inclination
97.4241°
RAAN
263.2901°
Arg. of periapsis
114.349°
True anomaly
Unknown
Mean anomaly
245.875°
Eccentric anomaly
Unknown
Mean motion
3.79878 °/min
Orbital period
94.77 mins
BSTAR
0.00012427
Loading maneuver chart data...
Loading SW <> Apogee altitude chart data...
Loading historical data...
Loading historical data...
Loading historical data...
Loading historical data...
Loading historical data...
Loading historical data...
Loading historical data...

BUZZZER-1 Visibility forecast

Observer location: undefined°, undefined°

Span
Click to sort rows by Start time (UTC) header in descending order
Start Az.
Max El. time (UTC)
Max El. Az.
Max El.
End time (UTC)
End Az.
6 mins2025-07-03 18:29:42.796Z357.632° N2025-07-03 18:32:42.796Z273.152° WNW37.325°2025-07-03 18:35:42.796Z211.136° SW
5 mins2025-07-04 05:08:42.796Z148.813° SSE2025-07-04 05:10:42.796Z97.451° ESE39.852°2025-07-04 05:13:42.796Z359.305° N
|